[[{"header":{"parameterUnit":"m.s-1","parameterCategory":1,"la1":30.2991,"la2":30.254,"lo1":-89.0895,"lo2":-89.0444,"dy":0.0017,"dx":0.0017,"nx":28,"ny":28,"refTime":"2023-08-06T03:00:00:Z","depth":0,"parameterNumber":2,"parameterNumberName":"U-component_of_WINDS"},"data":[0,0,0,0,0,0,0,0,0,0,0,0,0,0,0,0,0,0,0,0,0,0,0,0,0,0,0,0,0,0,0,0,0,0,0,0,0,0,0,0,0,0,0,0,0,0,0,0,0,0,0,0,0,0,0,0,0,0,2.6637,2.6638,0,2.6749,2.6751,2.6752,2.6729,2.6727,2.6725,2.6723,2.6844,2.6849,2.6854,0,0,0,0,0,0,0,0,0,0,0,0,0,2.6407,2.6412,2.6637,2.6638,2.664,2.6749,2.6751,2.6752,2.673,2.6727,2.6725,2.6722,2.6842,2.6849,2.6855,0,0,0,0,0,0,0,0,0,0,0,0,0,2.6512,2.6413,2.6636,2.6641,2.6643,2.6749,2.6751,2.6753,2.673,2.6727,2.6724,2.6721,2.684,2.6848,2.6856,2.6966,0,0,2.6879,2.6883,0,0,0,0,0,0,0,0,2.6506,2.6521,2.6639,2.6641,2.6643,2.6722,2.6714,2.6824,2.6731,2.6697,2.6723,2.6719,2.6806,2.6817,2.6845,2.6971,2.6976,2.688,2.6885,2.6888,2.689,0,0,0,0,0,0,0,2.6499,2.6516,2.6681,2.6641,2.6643,2.664,2.6651,2.6735,2.6768,2.67,2.6698,2.6712,2.6807,2.6837,2.6848,2.6978,2.688,2.6887,2.6891,2.6894,2.7201,2.7204,0,0,0,0,0,0,2.6489,2.651,2.6678,2.6685,2.6565,2.6646,2.6659,2.67,2.6767,2.6774,2.6714,2.671,2.6826,2.6839,2.6852,2.6984,2.6888,2.6895,2.69,2.7197,2.7202,2.7205,0,0,0,0,0,0,2.6484,2.6504,2.6673,2.6597,2.6618,2.6653,2.67,2.6704,2.6734,2.6778,2.6784,2.6739,2.6824,2.6841,2.6937,2.6988,2.6899,2.6906,2.7193,2.7199,2.7203,2.7251,0,0,0,0,0,0,2.6478,2.6503,2.6544,2.6598,2.6622,2.6755,2.6703,2.6708,2.6747,2.6743,2.6803,2.681,2.6823,2.6926,2.6945,2.6997,2.6912,2.7189,2.7196,2.7202,2.7245,2.7257,2.7268,0,0,0,0,0,2.647,2.6554,2.6546,2.6566,2.6674,2.6758,2.6772,2.6784,2.6751,2.6793,2.6821,2.6808,2.698,2.6936,2.6957,2.7013,2.7186,2.7194,2.7201,2.724,2.7255,2.7267,0,0,0,0,0,0,2.6507,2.6561,2.6553,2.6657,2.6703,2.6754,2.6807,2.6799,2.6857,2.6851,2.6864,2.6878,2.6976,2.7004,2.6954,2.7123,2.7078,2.7091,2.71,2.7115,2.7126,2.7117,2.6918,0,0,0,0,0,2.6526,2.6589,2.6634,2.6721,2.6744,2.6772,2.6809,2.6814,2.6863,2.6883,2.6918,2.6968,2.7033,2.7076,2.7138,2.7249,2.7262,2.7298,2.731,2.7319,2.7329,2.739,2.7406,2.7231,2.7231,2.7231,0,0,2.6569,2.6606,2.6645,2.6729,2.6766,2.6831,2.6789,2.686,2.6909,2.6895,2.6986,2.7014,2.7071,2.7175,2.7223,2.7202,2.7381,2.7329,2.7336,2.7341,2.74,2.7416,2.7431,2.7237,2.7236,2.7235,0,0,2.6679,2.6713,2.6789,2.6826,2.6881,2.6899,2.6918,2.697,2.6988,2.708,2.707,2.713,2.7242,2.7282,2.7318,2.7444,2.7433,2.7464,2.7523,2.7582,2.7596,2.7608,2.7652,2.7668,2.7474,2.7475,2.7475,0,2.6724,2.6821,2.683,2.6902,2.694,2.6928,2.7006,2.7042,2.7116,2.7143,2.7118,2.7257,2.7295,2.7408,2.7438,2.7468,2.749,2.7457,2.7593,2.7605,2.7617,2.7659,2.7676,2.7478,2.7477,2.7477,2.7477,0,2.6875,2.6942,2.6997,2.7066,2.711,2.7185,2.7207,2.7251,2.7253,2.7273,2.7368,2.7413,2.7483,2.7511,2.7514,2.7625,2.761,2.7589,2.7544,2.7636,2.7676,2.7693,2.7482,2.7481,2.748,2.7479,0,0,2.701,2.7083,2.7103,2.7134,2.7194,2.7247,2.7322,2.7389,2.7427,2.7478,2.7542,2.7637,2.7617,2.7658,2.7665,2.7717,2.7813,2.769,2.7691,2.771,2.7938,2.7952,2.7971,2.7807,2.781,2.7813,2.7933,0,2.7125,2.7254,2.7265,2.7382,2.7445,2.7435,2.7501,2.7545,2.7567,2.7625,2.765,2.7717,2.7687,2.7711,2.7762,2.779,2.7859,2.7782,2.7867,2.787,2.7852,2.7992,2.8008,2.8118,2.7949,2.7951,2.7953,0,2.7275,2.7329,2.7452,2.7503,2.753,2.7588,2.7651,2.7706,2.7757,2.777,2.7814,2.7815,2.7893,2.7846,2.7955,2.7902,2.7938,2.7958,2.7962,2.797,2.7916,2.8002,2.8154,2.817,2.7978,2.7976,2.7974,0,2.7361,2.7464,2.7551,2.7578,2.764,2.7681,2.771,2.7757,2.7797,2.7853,2.7879,2.7944,2.798,2.8031,2.8049,2.8013,2.8157,2.8112,2.817,2.8169,2.82,2.8197,2.8358,2.8225,2.8224,2.8224,2.8224,0,2.7487,2.7562,2.759,2.7643,2.7728,2.7741,2.7825,2.7851,2.7894,2.7953,2.795,2.8006,2.8027,2.8088,2.8103,2.819,2.8207,2.822,2.8223,2.8219,2.8217,2.8242,2.8234,2.8229,2.8228,2.8227,2.8226,0,2.7596,2.7617,2.7711,2.7762,2.7777,2.7837,2.7881,2.7933,2.7954,2.8029,2.8048,2.8082,2.8152,2.8176,2.8262,2.8272,2.8374,2.8371,2.8356,2.8356,2.8412,2.8406,2.8594,2.8619,2.847,2.8471,2.8472,0,2.7674,2.7732,2.7788,2.7827,2.7856,2.7919,2.7959,2.7975,2.8017,2.8079,2.8124,2.8194,2.825,2.8363,2.8397,2.8462,2.846,2.8522,2.847,2.8465,2.846,2.8456,2.8461,2.8531,2.8532,2.8534,2.8535,0,2.7811,2.7819,2.7876,2.7937,2.7985,2.8035,2.8083,2.8115,2.8138,2.8186,2.8257,2.83,2.8387,2.8456,2.8524,2.8554,2.8549,2.8551,2.8567,2.8564,2.8552,2.8558,2.838,2.8546,2.8545,2.8544,2.8543,2.8543,2.7906,2.7957,2.8004,2.8068,2.8106,2.8151,2.8202,2.8229,2.8288,2.8358,2.8365,2.8442,2.8492,2.8581,2.8615,2.8676,2.8659,2.8684,2.869,2.8695,2.8699,2.8543,2.8689,2.8688,2.8688,2.8688,2.8688,0,2.8042,2.8072,2.8131,2.8197,2.8248,2.8237,2.829,2.8333,2.84,2.8447,2.8502,2.8583,2.8651,2.8689,2.8756,2.8798,2.8797,2.8815,2.8811,2.8818,2.8711,2.8689,2.8814,2.8814,2.8814,2.8814,2.8814,2.8814,2.8118,2.8202,2.8216,2.832,2.835,2.8423,2.8454,2.8496,2.8533,2.8624,2.8679,2.8703,2.8747,2.8818,2.8879,2.8889,2.8913,2.8933,2.8941,2.8839,2.8826,2.8814,2.8793,2.8938,2.8939,2.9043,2.9044,2.9045]},{"header":{"parameterUnit":"m.s-1","parameterCategory":1,"la1":30.2991,"la2":30.254,"lo1":-89.0895,"lo2":-89.0444,"dy":0.0017,"dx":0.0017,"nx":28,"ny":28,"refTime":"2023-08-06T03:00:00:Z","depth":0,"parameterNumber":3,"parameterNumberName":"V-component_of_WINDS"},"data":[0,0,0,0,0,0,0,0,0,0,0,0,0,0,0,0,0,0,0,0,0,0,0,0,0,0,0,0,0,0,0,0,0,0,0,0,0,0,0,0,0,0,0,0,0,0,0,0,0,0,0,0,0,0,0,0,0,0,4.0931,4.0932,0,4.0987,4.0988,4.0989,4.1002,4.1002,4.1002,4.1001,4.1054,4.1056,4.1058,0,0,0,0,0,0,0,0,0,0,0,0,0,4.0828,4.083,4.0931,4.0932,4.0933,4.0987,4.0988,4.0989,4.1002,4.1002,4.1002,4.1001,4.1054,4.1056,4.1058,0,0,0,0,0,0,0,0,0,0,0,0,0,4.0877,4.0831,4.0931,4.0946,4.0948,4.0987,4.0988,4.0989,4.1003,4.1002,4.1001,4.1001,4.1053,4.1056,4.1058,4.1085,0,0,4.1066,4.1067,0,0,0,0,0,0,0,0,4.0874,4.0881,4.0943,4.0945,4.0947,4.0987,4.0971,4.1021,4.1003,4.0982,4.1001,4.1001,4.1032,4.1037,4.1048,4.1088,4.109,4.1066,4.1068,4.1069,4.107,0,0,0,0,0,0,0,4.0871,4.0879,4.0953,4.0944,4.0947,4.0947,4.0954,4.0981,4.1009,4.0983,4.0985,4.0991,4.1033,4.1046,4.1049,4.1091,4.1066,4.1069,4.107,4.1071,4.1149,4.115,0,0,0,0,0,0,4.0866,4.0876,4.0952,4.0955,4.0909,4.095,4.0957,4.0975,4.1009,4.1014,4.0992,4.0992,4.1041,4.1046,4.1051,4.1082,4.1069,4.1072,4.1073,4.1149,4.1149,4.115,0,0,0,0,0,0,4.0864,4.0873,4.0949,4.0916,4.0926,4.0952,4.0972,4.0976,4.0989,4.1015,4.102,4.1,4.1041,4.1048,4.1076,4.1084,4.1073,4.1075,4.1148,4.1149,4.115,4.1145,0,0,0,0,0,0,4.0861,4.0872,4.0885,4.0916,4.0927,4.0975,4.0973,4.0978,4.0994,4.0994,4.1024,4.1028,4.1041,4.1072,4.1078,4.1088,4.1077,4.1148,4.1149,4.115,4.1145,4.1146,4.1147,0,0,0,0,0,4.0857,4.0881,4.0885,4.0894,4.0944,4.0976,4.0982,4.0998,4.0995,4.1006,4.1022,4.1027,4.1082,4.1075,4.1082,4.1092,4.1147,4.1148,4.1149,4.1144,4.1146,4.1147,0,0,0,0,0,0,4.085,4.0886,4.0891,4.0926,4.0948,4.0978,4.0993,4.0999,4.1022,4.1021,4.1038,4.1045,4.1071,4.1084,4.1075,4.1117,4.1114,4.1117,4.1108,4.1109,4.111,4.1106,4.1079,0,0,0,0,0,4.0852,4.0877,4.0906,4.0935,4.0945,4.0967,4.0982,4.0992,4.1014,4.1023,4.1042,4.1062,4.1083,4.1097,4.1118,4.1146,4.1151,4.1157,4.1157,4.1158,4.116,4.1172,4.1174,4.1154,4.1154,4.1154,0,0,4.0858,4.088,4.0895,4.0934,4.0952,4.0974,4.0975,4.1,4.1015,4.1026,4.1054,4.1067,4.1091,4.1118,4.1131,4.113,4.1166,4.116,4.116,4.1162,4.1173,4.1175,4.1177,4.1154,4.1154,4.1154,0,0,4.0879,4.09,4.0924,4.0941,4.0968,4.0982,4.0987,4.1016,4.1026,4.1053,4.1061,4.1078,4.1116,4.1131,4.1144,4.1165,4.1169,4.1171,4.1176,4.1188,4.1189,4.1191,4.1196,4.1198,4.1173,4.1173,4.1173,0,4.0882,4.0919,4.0935,4.0959,4.0973,4.0984,4.1006,4.1022,4.1054,4.1063,4.1061,4.1106,4.1123,4.1152,4.1156,4.1167,4.1171,4.1168,4.1188,4.1189,4.1191,4.1196,4.1198,4.1173,4.1173,4.1173,4.1173,0,4.0919,4.0943,4.0959,4.099,4.1006,4.1029,4.1046,4.106,4.1067,4.108,4.1105,4.1125,4.1149,4.1157,4.1164,4.1185,4.1184,4.1185,4.1182,4.1193,4.1197,4.12,4.1173,4.1173,4.1173,4.1173,0,0,4.094,4.0977,4.0982,4.0994,4.1022,4.104,4.1061,4.1085,4.1095,4.1116,4.1132,4.1161,4.1161,4.1175,4.1184,4.1194,4.1206,4.1194,4.1194,4.1194,4.1227,4.1225,4.1227,4.1209,4.1209,4.121,4.1224,0,4.0963,4.1003,4.1016,4.1048,4.1068,4.1077,4.1094,4.1112,4.1123,4.114,4.1152,4.1171,4.1172,4.1179,4.119,4.1202,4.1213,4.1202,4.1221,4.1222,4.1215,4.123,4.123,4.1243,4.1226,4.1227,4.1227,0,4.0996,4.1017,4.105,4.1072,4.1081,4.1097,4.1118,4.1135,4.1153,4.116,4.1174,4.1181,4.12,4.1195,4.122,4.1212,4.122,4.1227,4.1228,4.123,4.1225,4.1231,4.1248,4.1249,4.1231,4.123,4.123,0,4.1004,4.104,4.1064,4.1075,4.1102,4.1112,4.1123,4.1141,4.1153,4.117,4.1177,4.1196,4.1206,4.1219,4.123,4.1227,4.1252,4.125,4.1257,4.1256,4.1262,4.1262,4.1279,4.1269,4.1269,4.1269,4.1269,0,4.1028,4.1048,4.1068,4.1083,4.1103,4.1117,4.1136,4.1148,4.1163,4.1178,4.1186,4.1199,4.1213,4.1227,4.1235,4.1252,4.1257,4.1261,4.1263,4.1261,4.126,4.1266,4.1265,4.1269,4.1269,4.1269,4.1269,0,4.1041,4.1056,4.1082,4.1104,4.111,4.1124,4.1142,4.1155,4.1165,4.1184,4.1189,4.1205,4.1221,4.1233,4.1255,4.126,4.1278,4.128,4.1272,4.1273,4.1279,4.1277,4.13,4.1302,4.1292,4.1292,4.1292,0,4.1055,4.107,4.1094,4.1104,4.1116,4.1133,4.1145,4.1157,4.1169,4.1188,4.1198,4.1215,4.123,4.1256,4.1268,4.1283,4.1285,4.1292,4.1288,4.1283,4.1283,4.1282,4.1282,4.1292,4.1293,4.1293,4.1293,0,4.1077,4.1082,4.11,4.1119,4.1132,4.1148,4.1163,4.1171,4.1185,4.1197,4.1214,4.1226,4.1247,4.1263,4.1279,4.1288,4.1292,4.1294,4.1296,4.1293,4.1287,4.1288,4.1273,4.1293,4.1293,4.1293,4.1293,4.1293,4.1089,4.1102,4.1119,4.1137,4.1149,4.1163,4.1175,4.1186,4.1201,4.122,4.1226,4.1243,4.1257,4.1279,4.1288,4.13,4.13,4.1303,4.1304,4.1304,4.1303,4.1285,4.1303,4.1303,4.1303,4.1303,4.1303,0,4.1109,4.112,4.1137,4.1157,4.117,4.1173,4.1189,4.1199,4.1215,4.1228,4.1242,4.126,4.1274,4.1287,4.1301,4.1308,4.131,4.1312,4.1311,4.1312,4.1304,4.13,4.131,4.131,4.131,4.131,4.131,4.131,4.1121,4.1142,4.1148,4.1173,4.1184,4.1201,4.121,4.1221,4.1231,4.1251,4.1264,4.1272,4.1284,4.1299,4.1311,4.1314,4.1319,4.1319,4.1323,4.1314,4.1313,4.1313,4.1309,4.132,4.1321,4.133,4.133,4.133]}]]